owner,sensor,date,latitude,longitude,vertical_datum,sea_water_practical_salinity,qcFlag 
SCCF RECON,ioos:station:SCCF:12:1,2012-07-03T15:00:00Z,26.4966,-82.1479,2.64,36.1,1111122 
SCCF RECON,ioos:station:SCCF:12:1,2012-07-03T16:00:00Z,26.4966,-82.1479,2.71,36.1,1111122 
SCCF RECON,ioos:station:SCCF:12:1,2012-07-03T17:00:00Z,26.4966,-82.1479,2.73,36.09,1111122 
SCCF RECON,ioos:station:SCCF:12:1,2012-07-03T18:00:00Z,26.4966,-82.1479,2.675,36.08,1111122 
SCCF RECON,ioos:station:SCCF:12:1,2012-07-03T19:00:00Z,26.4966,-82.1479,2.56,36.02,1111122 
SCCF RECON,ioos:station:SCCF:12:1,2012-07-03T20:00:00Z,26.4966,-82.1479,2.39,35.9,1111122 
SCCF RECON,ioos:station:SCCF:12:1,2012-07-03T21:00:00Z,26.4966,-82.1479,2.223,35.89,1111122 
SCCF RECON,ioos:station:SCCF:12:1,2012-07-03T22:00:00Z,26.4966,-82.1479,2.086,35.88,1111122 
SCCF RECON,ioos:station:SCCF:12:1,2012-07-03T23:00:00Z,26.4966,-82.1479,1.92,35.97,1111122 
SCCF RECON,ioos:station:SCCF:12:1,2012-07-04T00:00:00Z,26.4966,-82.1479,1.8,36.09,1111122 
SCCF RECON,ioos:station:SCCF:12:1,2012-07-04T01:00:00Z,26.4966,-82.1479,1.73,36.12,1111122 
SCCF RECON,ioos:station:SCCF:12:1,2012-07-04T02:00:00Z,26.4966,-82.1479,1.77,36.15,1111122 
SCCF RECON,ioos:station:SCCF:12:1,2012-07-04T03:00:00Z,26.4966,-82.1479,1.0,-9999.0,1111122 
SCCF RECON,ioos:station:SCCF:12:1,2012-07-04T04:00:00Z,26.4966,-82.1479,2.12,36.06,1111122 
SCCF RECON,ioos:station:SCCF:12:1,2012-07-04T05:00:00Z,26.4966,-82.1479,2.25,36.04,1111122 
SCCF RECON,ioos:station:SCCF:12:1,2012-07-04T06:00:00Z,26.4966,-82.1479,2.35,36.1,1111122 
SCCF RECON,ioos:station:SCCF:12:1,2012-07-04T07:00:00Z,26.4966,-82.1479,2.419,36.05,1111122 
SCCF RECON,ioos:station:SCCF:12:1,2012-07-04T08:00:00Z,26.4966,-82.1479,2.392,35.58,1111122 
SCCF RECON,ioos:station:SCCF:12:1,2012-07-04T09:00:00Z,26.4966,-82.1479,2.3,35.44,1111122 
SCCF RECON,ioos:station:SCCF:12:1,2012-07-04T10:00:00Z,26.4966,-82.1479,2.23,35.64,1111122 
SCCF RECON,ioos:station:SCCF:12:1,2012-07-04T11:00:00Z,26.4966,-82.1479,2.2,35.62,1111122 
SCCF RECON,ioos:station:SCCF:12:1,2012-07-04T12:00:00Z,26.4966,-82.1479,2.229,35.86,1111122 
SCCF RECON,ioos:station:SCCF:12:1,2012-07-04T13:00:00Z,26.4966,-82.1479,2.28,35.95,1111122 
SCCF RECON,ioos:station:SCCF:12:1,2012-07-04T14:00:00Z,26.4966,-82.1479,2.409,35.96,1111122 
SCCF RECON,ioos:station:SCCF:12:1,2012-07-04T15:00:00Z,26.4966,-82.1479,2.56,35.98,1111122 
SCCF RECON,ioos:station:SCCF:12:1,2012-07-04T16:00:00Z,26.4966,-82.1479,2.688,36.01,1111122 
SCCF RECON,ioos:station:SCCF:12:1,2012-07-04T17:00:00Z,26.4966,-82.1479,2.728,36.0,1111122 
SCCF RECON,ioos:station:SCCF:12:1,2012-07-04T18:00:00Z,26.4966,-82.1479,2.714,36.0,1111122 
SCCF RECON,ioos:station:SCCF:12:1,2012-07-04T19:00:00Z,26.4966,-82.1479,2.635,36.0,1111122 
SCCF RECON,ioos:station:SCCF:12:1,2012-07-04T20:00:00Z,26.4966,-82.1479,2.528,35.77,1111122 
SCCF RECON,ioos:station:SCCF:12:1,2012-07-04T21:00:00Z,26.4966,-82.1479,2.381,35.54,1111122 
SCCF RECON,ioos:station:SCCF:12:1,2012-07-04T22:00:00Z,26.4966,-82.1479,2.22,35.56,1111122 
SCCF RECON,ioos:station:SCCF:12:1,2012-07-04T23:00:00Z,26.4966,-82.1479,2.07,35.9,1111122 
SCCF RECON,ioos:station:SCCF:12:1,2012-07-05T00:00:00Z,26.4966,-82.1479,1.944,35.61,1111122 
SCCF RECON,ioos:station:SCCF:12:1,2012-07-05T01:00:00Z,26.4966,-82.1479,1.829,35.72,1111122 
SCCF RECON,ioos:station:SCCF:12:1,2012-07-05T02:00:00Z,26.4966,-82.1479,1.771,35.91,1111122 
SCCF RECON,ioos:station:SCCF:12:1,2012-07-05T03:00:00Z,26.4966,-82.1479,1.86,35.84,1111122 
SCCF RECON,ioos:station:SCCF:12:1,2012-07-05T04:00:00Z,26.4966,-82.1479,2.056,35.8,1111122 
SCCF RECON,ioos:station:SCCF:12:1,2012-07-05T05:00:00Z,26.4966,-82.1479,2.19,35.82,1111122 
SCCF RECON,ioos:station:SCCF:12:1,2012-07-05T06:00:00Z,26.4966,-82.1479,2.307,35.69,1111122 
SCCF RECON,ioos:station:SCCF:12:1,2012-07-05T07:00:00Z,26.4966,-82.1479,2.39,35.76,1111122 
SCCF RECON,ioos:station:SCCF:12:1,2012-07-05T08:00:00Z,26.4966,-82.1479,2.4,35.59,1111122 
SCCF RECON,ioos:station:SCCF:12:1,2012-07-05T09:00:00Z,26.4966,-82.1479,2.37,35.29,1111122 
SCCF RECON,ioos:station:SCCF:12:1,2012-07-05T10:00:00Z,26.4966,-82.1479,2.3,35.27,1111122 
SCCF RECON,ioos:station:SCCF:12:1,2012-07-05T11:00:00Z,26.4966,-82.1479,2.23,35.18,1111122 
SCCF RECON,ioos:station:SCCF:12:1,2012-07-05T12:00:00Z,26.4966,-82.1479,2.19,35.28,1111122 
SCCF RECON,ioos:station:SCCF:12:1,2012-07-05T13:00:00Z,26.4966,-82.1479,2.2,35.24,1111122 
SCCF RECON,ioos:station:SCCF:12:1,2012-07-05T14:00:00Z,26.4966,-82.1479,2.27,35.36,1111122 
SCCF RECON,ioos:station:SCCF:12:1,2012-07-05T15:00:00Z,26.4966,-82.1479,2.39,35.55,1111122 
SCCF RECON,ioos:station:SCCF:12:1,2012-07-05T16:00:00Z,26.4966,-82.1479,2.534,35.63,1111122 
SCCF RECON,ioos:station:SCCF:12:1,2012-07-05T17:00:00Z,26.4966,-82.1479,2.639,35.59,1111122 
SCCF RECON,ioos:station:SCCF:12:1,2012-07-05T18:00:00Z,26.4966,-82.1479,2.683,35.58,1111122 
SCCF RECON,ioos:station:SCCF:12:1,2012-07-05T19:00:00Z,26.4966,-82.1479,2.67,35.59,1111122 
SCCF RECON,ioos:station:SCCF:12:1,2012-07-05T20:00:00Z,26.4966,-82.1479,2.591,35.62,1111122 
SCCF RECON,ioos:station:SCCF:12:1,2012-07-05T21:00:00Z,26.4966,-82.1479,2.519,35.3,1111122 
SCCF RECON,ioos:station:SCCF:12:1,2012-07-05T22:00:00Z,26.4966,-82.1479,2.351,35.15,1111122 
SCCF RECON,ioos:station:SCCF:12:1,2012-07-05T23:00:00Z,26.4966,-82.1479,2.19,35.15,1111122 
SCCF RECON,ioos:station:SCCF:12:1,2012-07-06T00:00:00Z,26.4966,-82.1479,2.051,35.08,1111122 
SCCF RECON,ioos:station:SCCF:12:1,2012-07-06T01:00:00Z,26.4966,-82.1479,1.93,35.06,1111122 
SCCF RECON,ioos:station:SCCF:12:1,2012-07-06T02:00:00Z,26.4966,-82.1479,1.84,35.32,1111122 
SCCF RECON,ioos:station:SCCF:12:1,2012-07-06T03:00:00Z,26.4966,-82.1479,1.828,35.46,1111122 
SCCF RECON,ioos:station:SCCF:12:1,2012-07-06T04:00:00Z,26.4966,-82.1479,1.968,35.52,1111122 
SCCF RECON,ioos:station:SCCF:12:1,2012-07-06T05:00:00Z,26.4966,-82.1479,2.15,35.44,1111122 
SCCF RECON,ioos:station:SCCF:12:1,2012-07-06T06:00:00Z,26.4966,-82.1479,2.3,35.42,1111122 
SCCF RECON,ioos:station:SCCF:12:1,2012-07-06T07:00:00Z,26.4966,-82.1479,2.38,35.39,1111122 
SCCF RECON,ioos:station:SCCF:12:1,2012-07-06T08:00:00Z,26.4966,-82.1479,2.42,35.44,1111122 
SCCF RECON,ioos:station:SCCF:12:1,2012-07-06T09:00:00Z,26.4966,-82.1479,2.41,35.09,1111122 
SCCF RECON,ioos:station:SCCF:12:1,2012-07-06T10:00:00Z,26.4966,-82.1479,2.33,34.87,1111122 
SCCF RECON,ioos:station:SCCF:12:1,2012-07-06T11:00:00Z,26.4966,-82.1479,2.252,34.79,1111122 
SCCF RECON,ioos:station:SCCF:12:1,2012-07-06T12:00:00Z,26.4966,-82.1479,2.18,34.75,1111122 
SCCF RECON,ioos:station:SCCF:12:1,2012-07-06T13:00:00Z,26.4966,-82.1479,2.131,34.84,1111122 
SCCF RECON,ioos:station:SCCF:12:1,2012-07-06T14:00:00Z,26.4966,-82.1479,2.121,34.91,1111122 
SCCF RECON,ioos:station:SCCF:12:1,2012-07-06T15:00:00Z,26.4966,-82.1479,2.198,35.13,1111122 
SCCF RECON,ioos:station:SCCF:12:1,2012-07-06T16:00:00Z,26.4966,-82.1479,2.322,35.23,1111122 
SCCF RECON,ioos:station:SCCF:12:1,2012-07-06T17:00:00Z,26.4966,-82.1479,2.471,35.3,1111122 
SCCF RECON,ioos:station:SCCF:12:1,2012-07-06T18:00:00Z,26.4966,-82.1479,2.578,35.28,1111122 
SCCF RECON,ioos:station:SCCF:12:1,2012-07-06T19:00:00Z,26.4966,-82.1479,2.616,35.17,1111122 
SCCF RECON,ioos:station:SCCF:12:1,2012-07-06T20:00:00Z,26.4966,-82.1479,2.604,35.43,1111122 
SCCF RECON,ioos:station:SCCF:12:1,2012-07-06T21:00:00Z,26.4966,-82.1479,2.521,34.97,1111122 
SCCF RECON,ioos:station:SCCF:12:1,2012-07-06T22:00:00Z,26.4966,-82.1479,2.372,34.79,1111122 
SCCF RECON,ioos:station:SCCF:12:1,2012-07-06T23:00:00Z,26.4966,-82.1479,2.24,34.75,1111122 
SCCF RECON,ioos:station:SCCF:12:1,2012-07-07T00:00:00Z,26.4966,-82.1479,2.11,34.74,1111122 
SCCF RECON,ioos:station:SCCF:12:1,2012-07-07T01:00:00Z,26.4966,-82.1479,2.0,34.72,1111122 
SCCF RECON,ioos:station:SCCF:12:1,2012-07-07T02:00:00Z,26.4966,-82.1479,1.911,34.75,1111122 
SCCF RECON,ioos:station:SCCF:12:1,2012-07-07T03:00:00Z,26.4966,-82.1479,1.842,34.9,1111122 
SCCF RECON,ioos:station:SCCF:12:1,2012-07-07T04:00:00Z,26.4966,-82.1479,1.89,34.99,1111122 
SCCF RECON,ioos:station:SCCF:12:1,2012-07-07T05:00:00Z,26.4966,-82.1479,2.046,35.04,1111122 
SCCF RECON,ioos:station:SCCF:12:1,2012-07-07T06:00:00Z,26.4966,-82.1479,2.23,35.0,1111122 
SCCF RECON,ioos:station:SCCF:12:1,2012-07-07T07:00:00Z,26.4966,-82.1479,2.34,34.95,1111122 
SCCF RECON,ioos:station:SCCF:12:1,2012-07-07T08:00:00Z,26.4966,-82.1479,2.4,35.03,1111122 
SCCF RECON,ioos:station:SCCF:12:1,2012-07-07T09:00:00Z,26.4966,-82.1479,2.41,35.04,1111122 
SCCF RECON,ioos:station:SCCF:12:1,2012-07-07T10:00:00Z,26.4966,-82.1479,2.364,34.76,1111122 
SCCF RECON,ioos:station:SCCF:12:1,2012-07-07T11:00:00Z,26.4966,-82.1479,2.28,34.59,1111122 
SCCF RECON,ioos:station:SCCF:12:1,2012-07-07T12:00:00Z,26.4966,-82.1479,2.209,34.59,1111122 
SCCF RECON,ioos:station:SCCF:12:1,2012-07-07T13:00:00Z,26.4966,-82.1479,2.16,34.64,1111122 
SCCF RECON,ioos:station:SCCF:12:1,2012-07-07T14:00:00Z,26.4966,-82.1479,2.124,34.66,1111122 
SCCF RECON,ioos:station:SCCF:12:1,2012-07-07T15:00:00Z,26.4966,-82.1479,2.114,34.93,1111122 
SCCF RECON,ioos:station:SCCF:12:1,2012-07-07T16:00:00Z,26.4966,-82.1479,2.178,35.16,1111122 
SCCF RECON,ioos:station:SCCF:12:1,2012-07-07T17:00:00Z,26.4966,-82.1479,2.309,35.09,1111122 
SCCF RECON,ioos:station:SCCF:12:1,2012-07-07T18:00:00Z,26.4966,-82.1479,2.441,35.03,1111122 
SCCF RECON,ioos:station:SCCF:12:1,2012-07-07T19:00:00Z,26.4966,-82.1479,2.53,35.0,1111122 
SCCF RECON,ioos:station:SCCF:12:1,2012-07-07T20:00:00Z,26.4966,-82.1479,2.553,35.1,1111122 
SCCF RECON,ioos:station:SCCF:12:1,2012-07-07T21:00:00Z,26.4966,-82.1479,2.51,35.09,1111122 
SCCF RECON,ioos:station:SCCF:12:1,2012-07-07T22:00:00Z,26.4966,-82.1479,2.425,34.96,1111122 
SCCF RECON,ioos:station:SCCF:12:1,2012-07-07T23:00:00Z,26.4966,-82.1479,2.398,34.76,1111122 
SCCF RECON,ioos:station:SCCF:12:1,2012-07-08T00:00:00Z,26.4966,-82.1479,2.24,34.7,1111122 
SCCF RECON,ioos:station:SCCF:12:1,2012-07-08T01:00:00Z,26.4966,-82.1479,2.12,34.65,1111122 
SCCF RECON,ioos:station:SCCF:12:1,2012-07-08T02:00:00Z,26.4966,-82.1479,2.04,34.76,1111122 
SCCF RECON,ioos:station:SCCF:12:1,2012-07-08T03:00:00Z,26.4966,-82.1479,1.97,34.8,1111122 
SCCF RECON,ioos:station:SCCF:12:1,2012-07-08T04:00:00Z,26.4966,-82.1479,1.94,34.86,1111122 
SCCF RECON,ioos:station:SCCF:12:1,2012-07-08T05:00:00Z,26.4966,-82.1479,2.047,34.92,1111122 
SCCF RECON,ioos:station:SCCF:12:1,2012-07-08T06:00:00Z,26.4966,-82.1479,2.21,34.82,1111122 
SCCF RECON,ioos:station:SCCF:12:1,2012-07-08T07:00:00Z,26.4966,-82.1479,2.35,34.83,1111122 
SCCF RECON,ioos:station:SCCF:12:1,2012-07-08T08:00:00Z,26.4966,-82.1479,2.429,34.82,1111122 
SCCF RECON,ioos:station:SCCF:12:1,2012-07-08T09:00:00Z,26.4966,-82.1479,2.46,34.87,1111122 
SCCF RECON,ioos:station:SCCF:12:1,2012-07-08T10:00:00Z,26.4966,-82.1479,2.44,34.87,1111122 
SCCF RECON,ioos:station:SCCF:12:1,2012-07-08T11:00:00Z,26.4966,-82.1479,2.38,34.69,1111122 
SCCF RECON,ioos:station:SCCF:12:1,2012-07-08T12:00:00Z,26.4966,-82.1479,2.295,34.45,1111122 
SCCF RECON,ioos:station:SCCF:12:1,2012-07-08T13:00:00Z,26.4966,-82.1479,2.2,34.38,1111122 
SCCF RECON,ioos:station:SCCF:12:1,2012-07-08T14:00:00Z,26.4966,-82.1479,2.122,34.44,1111122 
SCCF RECON,ioos:station:SCCF:12:1,2012-07-08T15:00:00Z,26.4966,-82.1479,2.071,34.72,1111122 
SCCF RECON,ioos:station:SCCF:12:1,2012-07-08T16:00:00Z,26.4966,-82.1479,2.05,34.83,1111122 
SCCF RECON,ioos:station:SCCF:12:1,2012-07-08T17:00:00Z,26.4966,-82.1479,2.099,34.87,1111122 
SCCF RECON,ioos:station:SCCF:12:1,2012-07-08T18:00:00Z,26.4966,-82.1479,2.215,34.85,1111122 
SCCF RECON,ioos:station:SCCF:12:1,2012-07-08T19:00:00Z,26.4966,-82.1479,2.339,34.79,1111122 
SCCF RECON,ioos:station:SCCF:12:1,2012-07-08T20:00:00Z,26.4966,-82.1479,2.398,34.78,1111122 
SCCF RECON,ioos:station:SCCF:12:1,2012-07-08T21:00:00Z,26.4966,-82.1479,2.385,34.82,1111122 
SCCF RECON,ioos:station:SCCF:12:1,2012-07-08T22:00:00Z,26.4966,-82.1479,2.341,34.82,1111122 
SCCF RECON,ioos:station:SCCF:12:1,2012-07-08T23:00:00Z,26.4966,-82.1479,2.284,34.86,1111122 
SCCF RECON,ioos:station:SCCF:12:1,2012-07-09T00:00:00Z,26.4966,-82.1479,2.262,34.63,1111122 
SCCF RECON,ioos:station:SCCF:12:1,2012-07-09T01:00:00Z,26.4966,-82.1479,2.2,34.47,1111122 
SCCF RECON,ioos:station:SCCF:12:1,2012-07-09T02:00:00Z,26.4966,-82.1479,2.08,34.34,1111122 
SCCF RECON,ioos:station:SCCF:12:1,2012-07-09T03:00:00Z,26.4966,-82.1479,2.0,34.35,1111122 
SCCF RECON,ioos:station:SCCF:12:1,2012-07-09T04:00:00Z,26.4966,-82.1479,1.94,34.48,1111122 
SCCF RECON,ioos:station:SCCF:12:1,2012-07-09T05:00:00Z,26.4966,-82.1479,1.95,34.59,1111122 
SCCF RECON,ioos:station:SCCF:12:1,2012-07-09T06:00:00Z,26.4966,-82.1479,2.03,34.78,1111122 
SCCF RECON,ioos:station:SCCF:12:1,2012-07-09T07:00:00Z,26.4966,-82.1479,2.21,34.8,1111122 
SCCF RECON,ioos:station:SCCF:12:1,2012-07-09T08:00:00Z,26.4966,-82.1479,2.35,34.79,1111122 
SCCF RECON,ioos:station:SCCF:12:1,2012-07-09T09:00:00Z,26.4966,-82.1479,2.43,34.82,1111122 
SCCF RECON,ioos:station:SCCF:12:1,2012-07-09T10:00:00Z,26.4966,-82.1479,2.46,34.79,1111122 
SCCF RECON,ioos:station:SCCF:12:1,2012-07-09T11:00:00Z,26.4966,-82.1479,2.443,34.68,1111122 
SCCF RECON,ioos:station:SCCF:12:1,2012-07-09T12:00:00Z,26.4966,-82.1479,2.37,34.42,1111122 
SCCF RECON,ioos:station:SCCF:12:1,2012-07-09T13:00:00Z,26.4966,-82.1479,2.26,34.42,1111122 
SCCF RECON,ioos:station:SCCF:12:1,2012-07-09T14:00:00Z,26.4966,-82.1479,2.17,34.23,1111122 
SCCF RECON,ioos:station:SCCF:12:1,2012-07-09T15:00:00Z,26.4966,-82.1479,2.103,34.28,1111122 
SCCF RECON,ioos:station:SCCF:12:1,2012-07-09T16:00:00Z,26.4966,-82.1479,2.06,34.55,1111122 
SCCF RECON,ioos:station:SCCF:12:1,2012-07-09T17:00:00Z,26.4966,-82.1479,2.046,34.66,1111122 
SCCF RECON,ioos:station:SCCF:12:1,2012-07-09T18:00:00Z,26.4966,-82.1479,2.081,34.69,1111122 
SCCF RECON,ioos:station:SCCF:12:1,2012-07-09T19:00:00Z,26.4966,-82.1479,2.18,34.66,1111122 
SCCF RECON,ioos:station:SCCF:12:1,2012-07-09T20:00:00Z,26.4966,-82.1479,2.279,34.62,1111122 
SCCF RECON,ioos:station:SCCF:12:1,2012-07-09T21:00:00Z,26.4966,-82.1479,2.329,34.61,1111122 
SCCF RECON,ioos:station:SCCF:12:1,2012-07-09T22:00:00Z,26.4966,-82.1479,2.32,34.62,1111122 
SCCF RECON,ioos:station:SCCF:12:1,2012-07-09T23:00:00Z,26.4966,-82.1479,2.31,34.62,1111122 
SCCF RECON,ioos:station:SCCF:12:1,2012-07-10T00:00:00Z,26.4966,-82.1479,2.29,34.61,1111122 
SCCF RECON,ioos:station:SCCF:12:1,2012-07-10T01:00:00Z,26.4966,-82.1479,2.25,34.54,1111122 
SCCF RECON,ioos:station:SCCF:12:1,2012-07-10T02:00:00Z,26.4966,-82.1479,2.18,34.26,1111122 
SCCF RECON,ioos:station:SCCF:12:1,2012-07-10T03:00:00Z,26.4966,-82.1479,2.1,34.15,1111122 
SCCF RECON,ioos:station:SCCF:12:1,2012-07-10T04:00:00Z,26.4966,-82.1479,2.051,34.16,1111122 
SCCF RECON,ioos:station:SCCF:12:1,2012-07-10T05:00:00Z,26.4966,-82.1479,2.05,34.22,1111122 
SCCF RECON,ioos:station:SCCF:12:1,2012-07-10T06:00:00Z,26.4966,-82.1479,2.114,34.51,1111122 
SCCF RECON,ioos:station:SCCF:12:1,2012-07-10T07:00:00Z,26.4966,-82.1479,2.201,34.52,1111122 
SCCF RECON,ioos:station:SCCF:12:1,2012-07-10T08:00:00Z,26.4966,-82.1479,2.286,34.47,1111122 
SCCF RECON,ioos:station:SCCF:12:1,2012-07-10T09:00:00Z,26.4966,-82.1479,2.361,34.51,1111122 
SCCF RECON,ioos:station:SCCF:12:1,2012-07-10T10:00:00Z,26.4966,-82.1479,2.4,34.5,1111122 
SCCF RECON,ioos:station:SCCF:12:1,2012-07-10T11:00:00Z,26.4966,-82.1479,2.42,34.44,1111122 
SCCF RECON,ioos:station:SCCF:12:1,2012-07-10T12:00:00Z,26.4966,-82.1479,2.38,34.45,1111122 
SCCF RECON,ioos:station:SCCF:12:1,2012-07-10T13:00:00Z,26.4966,-82.1479,2.3,34.49,1111122 
SCCF RECON,ioos:station:SCCF:12:1,2012-07-10T14:00:00Z,26.4966,-82.1479,2.216,34.48,1111122 
SCCF RECON,ioos:station:SCCF:12:1,2012-07-10T15:00:00Z,26.4966,-82.1479,2.15,34.49,1111122 
SCCF RECON,ioos:station:SCCF:12:1,2012-07-10T16:00:00Z,26.4966,-82.1479,2.048,34.39,1111122 
SCCF RECON,ioos:station:SCCF:12:1,2012-07-10T17:00:00Z,26.4966,-82.1479,1.98,34.44,1111122 
SCCF RECON,ioos:station:SCCF:12:1,2012-07-10T18:00:00Z,26.4966,-82.1479,1.92,34.47,1111122 
SCCF RECON,ioos:station:SCCF:12:1,2012-07-10T19:00:00Z,26.4966,-82.1479,1.966,34.51,1111122 
SCCF RECON,ioos:station:SCCF:12:1,2012-07-10T20:00:00Z,26.4966,-82.1479,2.083,34.5,1111122 
SCCF RECON,ioos:station:SCCF:12:1,2012-07-10T21:00:00Z,26.4966,-82.1479,2.2,34.42,1111122 
SCCF RECON,ioos:station:SCCF:12:1,2012-07-10T22:00:00Z,26.4966,-82.1479,2.292,34.44,1111122 
SCCF RECON,ioos:station:SCCF:12:1,2012-07-10T23:00:00Z,26.4966,-82.1479,2.341,34.27,1111122 
SCCF RECON,ioos:station:SCCF:12:1,2012-07-11T00:00:00Z,26.4966,-82.1479,2.25,34.17,1111122 
SCCF RECON,ioos:station:SCCF:12:1,2012-07-11T01:00:00Z,26.4966,-82.1479,2.228,34.11,1111122 
SCCF RECON,ioos:station:SCCF:12:1,2012-07-11T02:00:00Z,26.4966,-82.1479,2.185,33.82,1111122 
SCCF RECON,ioos:station:SCCF:12:1,2012-07-11T03:00:00Z,26.4966,-82.1479,2.142,33.62,1111122 
SCCF RECON,ioos:station:SCCF:12:1,2012-07-11T04:00:00Z,26.4966,-82.1479,2.091,33.68,1111122 
SCCF RECON,ioos:station:SCCF:12:1,2012-07-11T05:00:00Z,26.4966,-82.1479,2.071,33.66,1111122 
SCCF RECON,ioos:station:SCCF:12:1,2012-07-11T06:00:00Z,26.4966,-82.1479,2.101,33.61,1111122 
SCCF RECON,ioos:station:SCCF:12:1,2012-07-11T07:00:00Z,26.4966,-82.1479,2.18,33.8,1111122 
SCCF RECON,ioos:station:SCCF:12:1,2012-07-11T08:00:00Z,26.4966,-82.1479,2.25,33.92,1111122 
SCCF RECON,ioos:station:SCCF:12:1,2012-07-11T09:00:00Z,26.4966,-82.1479,2.328,33.97,1111122 
SCCF RECON,ioos:station:SCCF:12:1,2012-07-11T10:00:00Z,26.4966,-82.1479,2.398,33.95,1111122 
SCCF RECON,ioos:station:SCCF:12:1,2012-07-11T11:00:00Z,26.4966,-82.1479,2.442,33.9,1111122 
SCCF RECON,ioos:station:SCCF:12:1,2012-07-11T12:00:00Z,26.4966,-82.1479,2.447,33.89,1111122 
SCCF RECON,ioos:station:SCCF:12:1,2012-07-11T13:00:00Z,26.4966,-82.1479,2.36,33.92,1111122 
SCCF RECON,ioos:station:SCCF:12:1,2012-07-11T14:00:00Z,26.4966,-82.1479,2.297,33.71,1111122 
SCCF RECON,ioos:station:SCCF:12:1,2012-07-11T15:00:00Z,26.4966,-82.1479,2.19,33.53,1111122 
SCCF RECON,ioos:station:SCCF:12:1,2012-07-11T16:00:00Z,26.4966,-82.1479,2.093,33.51,1111122 
SCCF RECON,ioos:station:SCCF:12:1,2012-07-11T17:00:00Z,26.4966,-82.1479,1.998,33.69,1111122 
SCCF RECON,ioos:station:SCCF:12:1,2012-07-11T18:00:00Z,26.4966,-82.1479,1.93,33.69,1111122 
SCCF RECON,ioos:station:SCCF:12:1,2012-07-11T19:00:00Z,26.4966,-82.1479,1.92,33.69,1111122 
SCCF RECON,ioos:station:SCCF:12:1,2012-07-11T20:00:00Z,26.4966,-82.1479,1.99,33.8,1111122 
SCCF RECON,ioos:station:SCCF:12:1,2012-07-11T21:00:00Z,26.4966,-82.1479,2.05,33.86,1111122 
SCCF RECON,ioos:station:SCCF:12:1,2012-07-11T22:00:00Z,26.4966,-82.1479,2.11,33.89,1111122 
SCCF RECON,ioos:station:SCCF:12:1,2012-07-11T23:00:00Z,26.4966,-82.1479,2.17,33.87,1111122 
SCCF RECON,ioos:station:SCCF:12:1,2012-07-12T00:00:00Z,26.4966,-82.1479,2.21,33.87,1111122 
SCCF RECON,ioos:station:SCCF:12:1,2012-07-12T01:00:00Z,26.4966,-82.1479,2.22,33.91,1111122 
SCCF RECON,ioos:station:SCCF:12:1,2012-07-12T02:00:00Z,26.4966,-82.1479,2.22,33.87,1111122 
SCCF RECON,ioos:station:SCCF:12:1,2012-07-12T03:00:00Z,26.4966,-82.1479,2.14,33.73,1111122 
SCCF RECON,ioos:station:SCCF:12:1,2012-07-12T04:00:00Z,26.4966,-82.1479,2.18,33.71,1111122 
SCCF RECON,ioos:station:SCCF:12:1,2012-07-12T05:00:00Z,26.4966,-82.1479,2.249,33.27,1111122 
SCCF RECON,ioos:station:SCCF:12:1,2012-07-12T06:00:00Z,26.4966,-82.1479,2.2,33.25,1111122 
SCCF RECON,ioos:station:SCCF:12:1,2012-07-12T07:00:00Z,26.4966,-82.1479,2.151,33.16,1111122 
SCCF RECON,ioos:station:SCCF:12:1,2012-07-12T08:00:00Z,26.4966,-82.1479,2.18,33.07,1111122 
SCCF RECON,ioos:station:SCCF:12:1,2012-07-12T09:00:00Z,26.4966,-82.1479,2.248,33.04,1111122 
SCCF RECON,ioos:station:SCCF:12:1,2012-07-12T10:00:00Z,26.4966,-82.1479,2.34,33.09,1111122 
SCCF RECON,ioos:station:SCCF:12:1,2012-07-12T11:00:00Z,26.4966,-82.1479,2.4,33.36,1111122 
SCCF RECON,ioos:station:SCCF:12:1,2012-07-12T12:00:00Z,26.4966,-82.1479,2.43,33.03,1111122 
SCCF RECON,ioos:station:SCCF:12:1,2012-07-12T13:00:00Z,26.4966,-82.1479,2.421,33.02,1111122 
SCCF RECON,ioos:station:SCCF:12:1,2012-07-12T14:00:00Z,26.4966,-82.1479,2.4,33.21,1111122 
SCCF RECON,ioos:station:SCCF:12:1,2012-07-12T15:00:00Z,26.4966,-82.1479,2.332,33.08,1111122 
SCCF RECON,ioos:station:SCCF:12:1,2012-07-12T16:00:00Z,26.4966,-82.1479,2.23,33.05,1111122 
SCCF RECON,ioos:station:SCCF:12:1,2012-07-12T17:00:00Z,26.4966,-82.1479,2.13,33.02,1111122 
SCCF RECON,ioos:station:SCCF:12:1,2012-07-12T18:00:00Z,26.4966,-82.1479,2.04,33.19,1111122 
SCCF RECON,ioos:station:SCCF:12:1,2012-07-12T19:00:00Z,26.4966,-82.1479,1.95,33.13,1111122 
SCCF RECON,ioos:station:SCCF:12:1,2012-07-12T20:00:00Z,26.4966,-82.1479,1.887,33.22,1111122 
SCCF RECON,ioos:station:SCCF:12:1,2012-07-12T21:00:00Z,26.4966,-82.1479,1.889,33.23,1111122 
SCCF RECON,ioos:station:SCCF:12:1,2012-07-12T22:00:00Z,26.4966,-82.1479,1.99,33.21,1111122 
SCCF RECON,ioos:station:SCCF:12:1,2012-07-12T23:00:00Z,26.4966,-82.1479,2.08,33.17,1111122 
SCCF RECON,ioos:station:SCCF:12:1,2012-07-13T00:00:00Z,26.4966,-82.1479,2.15,33.2,1111122 
SCCF RECON,ioos:station:SCCF:12:1,2012-07-13T01:00:00Z,26.4966,-82.1479,2.2,33.11,1111122 
SCCF RECON,ioos:station:SCCF:12:1,2012-07-13T02:00:00Z,26.4966,-82.1479,2.23,33.07,1111122 
SCCF RECON,ioos:station:SCCF:12:1,2012-07-13T03:00:00Z,26.4966,-82.1479,2.27,33.16,1111122 
SCCF RECON,ioos:station:SCCF:12:1,2012-07-13T04:00:00Z,26.4966,-82.1479,2.3,33.04,1111122 
SCCF RECON,ioos:station:SCCF:12:1,2012-07-13T05:00:00Z,26.4966,-82.1479,2.3,33.0,1111122 
SCCF RECON,ioos:station:SCCF:12:1,2012-07-13T06:00:00Z,26.4966,-82.1479,2.282,32.89,1111122 
SCCF RECON,ioos:station:SCCF:12:1,2012-07-13T07:00:00Z,26.4966,-82.1479,2.21,32.82,1111122 
SCCF RECON,ioos:station:SCCF:12:1,2012-07-13T08:00:00Z,26.4966,-82.1479,2.2,32.51,1111122 
SCCF RECON,ioos:station:SCCF:12:1,2012-07-13T09:00:00Z,26.4966,-82.1479,2.249,32.45,1111122 
SCCF RECON,ioos:station:SCCF:12:1,2012-07-13T10:00:00Z,26.4966,-82.1479,2.33,32.41,1111122 
SCCF RECON,ioos:station:SCCF:12:1,2012-07-13T11:00:00Z,26.4966,-82.1479,2.41,32.4,1111122 
SCCF RECON,ioos:station:SCCF:12:1,2012-07-13T12:00:00Z,26.4966,-82.1479,2.44,32.38,1111122 
SCCF RECON,ioos:station:SCCF:12:1,2012-07-13T13:00:00Z,26.4966,-82.1479,2.453,32.45,1111122 
SCCF RECON,ioos:station:SCCF:12:1,2012-07-13T14:00:00Z,26.4966,-82.1479,2.44,32.41,1111122 
SCCF RECON,ioos:station:SCCF:12:1,2012-07-13T15:00:00Z,26.4966,-82.1479,2.404,32.41,1111122 
SCCF RECON,ioos:station:SCCF:12:1,2012-07-13T16:00:00Z,26.4966,-82.1479,2.309,32.39,1111122 
SCCF RECON,ioos:station:SCCF:12:1,2012-07-13T17:00:00Z,26.4966,-82.1479,2.188,32.66,1111122 
SCCF RECON,ioos:station:SCCF:12:1,2012-07-13T18:00:00Z,26.4966,-82.1479,2.071,32.25,1111122 
SCCF RECON,ioos:station:SCCF:12:1,2012-07-13T19:00:00Z,26.4966,-82.1479,1.957,32.26,1111122 
SCCF RECON,ioos:station:SCCF:12:1,2012-07-13T20:00:00Z,26.4966,-82.1479,1.882,32.4,1111122 
SCCF RECON,ioos:station:SCCF:12:1,2012-07-13T21:00:00Z,26.4966,-82.1479,1.88,32.35,1111122 
SCCF RECON,ioos:station:SCCF:12:1,2012-07-13T22:00:00Z,26.4966,-82.1479,1.85,32.48,1111122 
SCCF RECON,ioos:station:SCCF:12:1,2012-07-13T23:00:00Z,26.4966,-82.1479,1.93,32.45,1111122 
SCCF RECON,ioos:station:SCCF:12:1,2012-07-14T00:00:00Z,26.4966,-82.1479,2.04,32.4,1111122 
SCCF RECON,ioos:station:SCCF:12:1,2012-07-14T01:00:00Z,26.4966,-82.1479,2.13,32.39,1111122 
SCCF RECON,ioos:station:SCCF:12:1,2012-07-14T02:00:00Z,26.4966,-82.1479,2.21,32.42,1111122 
SCCF RECON,ioos:station:SCCF:12:1,2012-07-14T03:00:00Z,26.4966,-82.1479,2.25,32.38,1111122 
SCCF RECON,ioos:station:SCCF:12:1,2012-07-14T04:00:00Z,26.4966,-82.1479,2.25,32.39,1111122 
SCCF RECON,ioos:station:SCCF:12:1,2012-07-14T05:00:00Z,26.4966,-82.1479,2.21,32.19,1111122 
SCCF RECON,ioos:station:SCCF:12:1,2012-07-14T06:00:00Z,26.4966,-82.1479,2.185,32.18,1111122 
SCCF RECON,ioos:station:SCCF:12:1,2012-07-14T07:00:00Z,26.4966,-82.1479,2.174,32.15,1111122 
SCCF RECON,ioos:station:SCCF:12:1,2012-07-14T08:00:00Z,26.4966,-82.1479,2.16,32.05,1111122 
SCCF RECON,ioos:station:SCCF:12:1,2012-07-14T09:00:00Z,26.4966,-82.1479,2.219,31.98,1111122 